Home > Weather > Oklahoma City > Past weeks

Flag for U.S.A. Weather for the Past 2 Weeks in Oklahoma City, Oklahoma, U.S.A.

Now
49 °F

Scattered clouds.


Feels Like: 40 °F
Forecast: 34 / 49 °F
Wind: 33 mph from North

Location: Will Rogers World Airport

Current Time: Feb 8, 2016 at 5:19:33 PM

Latest Report: Feb 8, 2016 at 3:52 PM


Visibility: 10 mi

Pressure: 30.22 "Hg

Humidity: 16%

Dew point: 4 °F

Location of Oklahoma CityLocation

Historic Weather in Oklahoma City — Graph

°F

Oklahoma City Temperature Yesterday

Maximum temperature yesterday: 59 °F (at 2:52 PM)
Minimum temperature yesterday: 29 °F (at 4:52 AM)
Average temperature yesterday: 44 °F

High & Low Weather Summary for the Past Weeks

 TemperatureHumidityPressure
High75 °F (Jan 29, 1:52 PM)96% (Feb 2, 1:52 AM)30.46 "Hg (Feb 2, 1:52 AM)
Low20 °F (Feb 4, 5:52 AM)16% (Feb 8, 3:52 PM)29.43 "Hg (Feb 1, 9:52 PM)
Average45 °F56%30.04 "Hg
* Reported Jan 24 3:52 PM — Feb 8 3:52 PM, Oklahoma City, Weather by CustomWeather, © 2016

Note: Actual official high and low records may vary slightly from our data, if they occured in-between our weather recording intervals... More about our weather records

Advertising

Oklahoma City Weather History for the Previous 24 Hours

 ConditionsComfort  
Time TempWeatherWind HumidityBarometerVisibility
3:52 PM
Mon, Feb 8
49 °FScattered clouds.33 mph16%30.22 "Hg10 mi
2:52 PM50 °FPassing clouds.33 mph18%30.24 "Hg10 mi
1:52 PM50 °FPassing clouds.33 mph19%30.25 "Hg10 mi
12:52 PM49 °FSunny.35 mph19%30.27 "Hg10 mi
11:52 AM46 °FSunny.41 mph22%30.30 "Hg10 mi
10:52 AM45 °FSunny.38 mph25%30.32 "Hg10 mi
9:52 AM41 °FSunny.30 mph33%30.32 "Hg10 mi
8:52 AM38 °FSunny.21 mph43%30.32 "Hg10 mi
7:52 AM36 °FSunny.15 mph44%30.30 "Hg10 mi
6:52 AM36 °FClear.16 mph44%30.28 "Hg10 mi
5:52 AM37 °FClear.20 mph42%30.28 "Hg10 mi
4:52 AM38 °FPassing clouds.20 mph41%30.27 "Hg10 mi
3:52 AM38 °FPassing clouds.17 mph41%30.28 "Hg10 mi
2:52 AM38 °FPassing clouds.18 mph43%30.27 "Hg10 mi
1:52 AM42 °FPassing clouds.20 mph35%30.27 "Hg10 mi
12:52 AM43 °FPassing clouds.18 mph34%30.28 "Hg10 mi
11:52 PM
Sun, Feb 7
43 °FPassing clouds.16 mph37%30.29 "Hg10 mi
10:52 PM44 °FPassing clouds.20 mph34%30.28 "Hg10 mi
9:52 PM44 °FPassing clouds.21 mph35%30.27 "Hg10 mi
8:52 PM46 °FPassing clouds.20 mph38%30.26 "Hg10 mi
7:52 PM48 °FClear.20 mph39%30.24 "Hg10 mi
6:52 PM52 °FClear.17 mph34%30.21 "Hg10 mi
5:52 PM55 °FPassing clouds.21 mph31%30.17 "Hg10 mi
Weather by CustomWeather, © 2016

See weather overviewHow to use our weather pages